User: anonymous   Login
Location: Pulvis Stellarum Observatory
(41.6962°N, 71.4263°W)
Time: 09:45:46
(UTC-04:00)
Language:

Cosmos 1758 - Orbit

View from above orbital plane
View from above orbital plane
View from above satellite
View from above satellite

Ground track
Ground track

The orbit data is extracted from the following two-line orbital elements,

1 16791U 86046A   17146.31869465 +.00000020 +00000-0 -63406-6 0  9997
2 16791 082.4721 053.3854 0017302 157.8819 202.3158 15.04406035682117
Epoch (UTC): 26 May 2017 07:38:55
Eccentricity: 0.0017302
inclination: 82.4721°
perigee height: 541 km
apogee height: 565 km
right ascension of ascending node: 53.3854°
argument of perigee: 157.8819°
revolutions per day: 15.04406035
mean anomaly at epoch: 202.3158°
orbit number at epoch: 68211

The dashed part of the orbit path shows where the satellite is in the earth's shadow,  

DLR